Regional Weather Roundup
Issued by NWS

Home | Current Version | Previous Version | Text Only | Print | Product List | Glossary On
Versions: 1 2 3 4 5 6 7 8 9 10 11 12 13 14 15 16 17 18 19 20 21 22 23 24 25 26 27 28 29 30 31 32 33 34 35 36 37 38 39 40 41 42 43 44 45 46 47 48 49 50
529
ASUS42 KTAE 261715
RWRTAE
RWRTAE
North Florida/South Alabama/Southwest Georgia Weather Roundup
National Weather Service Tallahassee Florida
100 PM EDT SUN MAY 26 2019

Note: "fair" indicates few or no clouds below 12,000 feet with no
significant weather and/or obstructions to visibility.

!FLZ017-115-028-034-025-261800
...North Florida...

CITY           SKY/WX    TMP DP  RH WIND       PRES   REMARKS
TALL INTL ARPT FAIR      91  73  55 S7        30.13F HX  99
FSU LOVE BLDG  NOT AVBL
APALACHICOLA   FAIR      86  71  60 S10       30.15F HX  91
PERRY          FAIR      91  70  50 W7        30.15F HX  96
CROSS CITY     FAIR      92  70  47 NW6       30.14F HX  97
JACKSONVILLE   FAIR      93  64  38 MISG      30.13F HX  94
$$

!FLZ112-006-005-002-011-261800
...Florida Panhandle...

CITY           SKY/WX    TMP DP  RH WIND       PRES   REMARKS
MARIANNA       FAIR      95  66  38 VRB3      30.12F HX  98
BONIFAY        NOT AVBL
PANAMA CITY NW FAIR      91  73  55 VRB3      30.13F HX  99
TYNDALL AFB    NOT AVBL
TYND DRONE APT NOT AVBL
DE FUNIAK SPR  FAIR      93  65  39 SE5       30.15S HX  95
EGLIN AFB      MOSUNNY   89  71  56 S12G17    30.12F HX  95
DESTIN         FAIR      88  73  61 SE10      30.14S HX  95
HURLBURT       FAIR      89  73  60 S10       30.13S HX  97
CRESTVIEW      FAIR      94  63  35 NW5       30.15S HX  95
PENSACOLA      FAIR      93  66  40 SE8       30.14S HX  96
$$

!ALZ063-066-261800
...South Alabama...

CITY           SKY/WX    TMP DP  RH WIND       PRES   REMARKS
DOTHAN         FAIR      96  60  30 VRB3      30.16F HX  96
OZARK CAIRNS   FAIR      95  65  37 CALM      30.14F HX  97
FT RUCKER HELI FAIR      92  69  46 CALM      30.14F HX  96
RUCKER HELI 3  FAIR      92  66  42 NW5       30.14F HX  95
RUCKER HELI 2  FAIR      93  66  40 N3        30.13F HX  95
FLORALA APT    FAIR      94  65  38 MISG      30.16F HX  96
ANDALUSIA      FAIR      96  65  35 CALM      30.15F HX  98
TROY           FAIR      91  69  48 VRB5      30.16F HX  96
EUFALA         NOT AVBL
MOBILE         FAIR      92  68  45 S8        30.16S HX  96
$$

!GAZ120>161-261800
...Southwest and South Central Georgia...

CITY           SKY/WX    TMP DP  RH WIND       PRES   REMARKS
THOMASVILLE    FAIR      91  70  49 SW5       30.15F HX  97
BAINBRIDGE       N/A     97  63  32 MISG      30.14F HX  98
MOODY AFB      PTSUNNY   94  71  47 SW3       30.13F HX 102
VALDOSTA       FAIR      93  71  48 VRB3      30.14F HX 100
MOULTRIE       FAIR      91  66  43 SW5       30.15F HX  94
BLAKELY        FAIR      91  63  38 CALM      30.13F HX  92
ALBANY         SUNNY     97  64  34 VRB3      30.14F HX  99
TIFTON         FAIR      93  62  36 SE6       30.13  HX  94
FITZGERALD     FAIR      95  67  39 CALM      30.15F HX  98
CORDELE        FAIR      94  61  32 CALM      30.14F HX  94
AMERICUS         N/A     97  59  28 CALM      30.16F HX  96
HOMERVILLE     FAIR      91  68  46 CALM      30.13F HX  95
$$

!GMZ750-755-770-775-261800
...Coastal and Buoy Obs...

STATION/POSITION TIME  TEMP    WIND        PRES    VSBY  WAVE
                       AIR SEA DIR/SP/G                  HT/PER
                 (UTC) (F)     (DEG/KT/KT) (MB)    (MI)  (FT/S)
KEATON BEACH     1700   81     230/  5/  6 1021.4F
CEDAR KEY        1700   80     160/  3/  3 1021.2F
C TOWER          NOT AVBL
APALACHICOLA BUO NOT AVBL
PANAMA CITY BUOY NOT AVBL
MOBILE BUOY      1700          120/  8/ 10 1021.3
ORANGE BCH AL BU 1640                        N/A           2/ 6
$$




USA.gov is the U.S. government's official web portal to all federal, state and local government web resources and services.